Weather History for KHYA - May, 2013

Change the Weather History Date:

Tuesday, May 21, 2013

  Actual Average Record
Temperature  
Mean Temperature 64 °F -  
Max Temperature 73 °F 64 °F 80 °F (1959)
Min Temperature 55 °F 49 °F 30 °F (1956)
Degree Days  
Heating Degree Days 1    
Growing Degree Days 14 (Base 50)    
Moisture  
Dew Point 58 °F    
Average Humidity 93    
Maximum Humidity 100    
Minimum Humidity 75    
Precipitation  
Precipitation 0.00 in - - ()
Sea Level Pressure  
Sea Level Pressure 29.93 in    
Wind  
Wind Speed 3 mph (SSW)    
Max Wind Speed 20 mph    
Max Gust Speed 23 mph    
Visibility 4 miles    
Events Fog , Rain    
Averages and records for this station are not official NWS values.
T = Trace of Precipitation, MM = Missing Value Source: NWS Daily Summary

Daily Weather History Graph

Daily Weather History Graph

Search for Another Location

Airport or City:

Trip Planner

Search our weather history database for the weather conditions in past years. The results will help you decide how hot, cold, wet, or windy it might be!

Date:

Astronomy

May. 21, 2013 Rise Set
Actual Time 5:15 AM EDT 8:00 PM EDT
Civil Twilight 4:43 AM EDT 8:32 PM EDT
Nautical Twilight 4:03 AM EDT 9:13 PM EDT
Astronomical Twilight 3:16 AM EDT 9:59 PM EDT
Moon 4:07 PM EDT (5/21) 2:45 AM EDT (5/21)
Length of Visible Light 15h 48m
Length of Day
14h 44m
Waxing Gibbous, 84% of the Moon is Illuminated
May 21
Waxing Gibbous
May 25
Full
May 31
Last Quarter
Jun 8
New
Jun 16
First Quarter

Hourly Weather History & Observations

Time (EDT) Temp. Dew Point Humidity Pressure Visibility Wind Dir Wind Speed Gust Speed Precip Events Conditions
12:56 AM 60.1 °F 59.0 °F 96% 29.96 in 5.0 mi Calm Calm - N/A   Clear
1:56 AM 59.0 °F 57.9 °F 96% 29.95 in 5.0 mi Calm Calm - N/A   Partly Cloudy
2:56 AM 59.0 °F 57.0 °F 93% 29.94 in 4.0 mi Calm Calm - N/A   Partly Cloudy
3:56 AM 57.9 °F 57.0 °F 97% 29.93 in 4.0 mi Calm Calm - N/A   Clear
4:56 AM 55.9 °F 55.0 °F 97% 29.92 in 6.0 mi Calm Calm - N/A   Clear
5:06 AM 57.2 °F 55.4 °F 94% 29.93 in 5.0 mi Calm Calm - N/A   Scattered Clouds
5:16 AM 57.2 °F 55.4 °F 94% 29.93 in 4.0 mi Calm Calm - N/A   Mostly Cloudy
5:21 AM 55.4 °F 55.4 °F 100% 29.93 in 1.5 mi Calm Calm - N/A   Mostly Cloudy
5:38 AM 57.2 °F 55.4 °F 94% 29.95 in 2.5 mi Calm Calm - N/A   Overcast
5:56 AM 57.9 °F 55.9 °F 93% 29.96 in 2.0 mi Calm Calm - N/A   Scattered Clouds
6:02 AM 57.2 °F 57.2 °F 100% 29.96 in 2.5 mi Calm Calm - N/A   Mostly Cloudy
6:05 AM 57.2 °F 57.2 °F 100% 29.96 in 1.5 mi Calm Calm - N/A   Mostly Cloudy
6:14 AM 57.2 °F 57.2 °F 100% 29.96 in 0.5 mi Calm Calm - N/A Fog Fog
6:27 AM 59.0 °F 57.2 °F 94% 29.96 in 0.2 mi Calm Calm - N/A Fog Fog
6:56 AM 60.1 °F 60.1 °F 100% 29.96 in 0.2 mi South 4.6 mph - N/A Fog Fog
7:56 AM 61.0 °F 60.1 °F 97% 29.97 in 0.8 mi SE 3.5 mph - N/A   Overcast
8:56 AM 61.0 °F 60.1 °F 97% 29.94 in 0.8 mi SSE 5.8 mph - N/A   Overcast
8:59 AM 60.8 °F 60.8 °F 100% 29.94 in 3.0 mi SSE 5.8 mph - N/A   Overcast
9:01 AM 60.8 °F 60.8 °F 100% 29.94 in 0.5 mi SSE 8.1 mph - N/A Fog Fog
9:56 AM 63.0 °F 60.1 °F 90% 29.94 in 0.5 mi SSE 8.1 mph - N/A Fog Fog
10:30 AM 60.8 °F 59.0 °F 94% 29.94 in 0.2 mi SSE 8.1 mph - N/A Fog Fog
10:53 AM 60.8 °F 57.2 °F 88% 29.94 in 1.2 mi South 6.9 mph - N/A   Overcast
10:56 AM 61.0 °F 59.0 °F 93% 29.94 in 2.5 mi Variable 6.9 mph - N/A   Overcast
11:56 AM 64.0 °F 60.1 °F 87% 29.93 in 6.0 mi Variable 4.6 mph - N/A   Overcast
12:12 PM 64.4 °F 60.8 °F 88% 29.92 in 6.0 mi SSW 6.9 mph - N/A   Haze
12:56 PM 68.0 °F 61.0 °F 78% 29.91 in 10.0 mi South 9.2 mph - N/A   Clear
1:56 PM 66.9 °F 61.0 °F 81% 29.89 in 9.0 mi South 9.2 mph - N/A   Clear
2:56 PM 69.1 °F 61.0 °F 75% 29.90 in 10.0 mi South 8.1 mph - N/A   Clear
3:56 PM 72.0 °F 64.9 °F 78% 29.87 in 9.0 mi SW 19.6 mph 23.0 mph N/A   Clear
4:56 PM 73.0 °F 64.9 °F 76% 29.88 in 10.0 mi SW 12.7 mph - N/A   Clear
5:56 PM 64.0 °F 59.0 °F 84% 29.88 in 9.0 mi Calm Calm - N/A   Partly Cloudy
6:56 PM 59.0 °F 55.9 °F 90% 29.93 in 6.0 mi NW 10.4 mph - N/A   Clear
7:06 PM 59.0 °F 55.4 °F 88% 29.92 in 6.0 mi WNW 8.1 mph - N/A   Partly Cloudy
7:37 PM 59.0 °F 55.4 °F 88% 29.93 in 5.0 mi NW 8.1 mph - N/A   Mostly Cloudy
7:56 PM 57.9 °F 55.9 °F 93% 29.94 in 5.0 mi NNW 8.1 mph - N/A   Overcast
8:56 PM 57.0 °F 55.9 °F 96% 29.94 in 3.0 mi North 9.2 mph - 0.00 in   Overcast
9:04 PM 57.2 °F 55.4 °F 94% 29.93 in 2.5 mi North 6.9 mph - 0.00 in Rain Light Rain
9:19 PM 57.2 °F 55.4 °F 94% 29.92 in 1.8 mi NNE 8.1 mph - 0.00 in Rain Light Rain
9:28 PM 57.2 °F 55.4 °F 94% 29.91 in 2.0 mi NE 5.8 mph - 0.00 in   Overcast
9:42 PM 57.2 °F 57.2 °F 100% 29.90 in 3.0 mi NNE 4.6 mph - 0.00 in   Overcast
9:56 PM 57.9 °F 57.0 °F 97% 29.91 in 3.0 mi NNE 5.8 mph - 0.00 in   Overcast
10:11 PM 57.2 °F 57.2 °F 100% 29.91 in 2.5 mi North 3.5 mph - 0.00 in Rain Light Rain
10:24 PM 57.2 °F 57.2 °F 100% 29.91 in 3.0 mi SSE 3.5 mph - 0.00 in Rain Light Rain
10:56 PM 57.9 °F 57.0 °F 97% 29.92 in 2.0 mi NNW 8.1 mph 16.1 mph 0.00 in   Overcast
11:03 PM 57.2 °F 55.4 °F 94% 29.91 in 1.5 mi NNW 8.1 mph - N/A   Overcast
11:56 PM 55.0 °F 54.0 °F 96% 29.92 in 3.0 mi North 9.2 mph - N/A   Overcast